Weather History for Mammoth, CA

Change the Weather History Date:

Tuesday, October 22, 2013

  Actual Average Record
Temperature  
Mean Temperature 44 °F -  
Max Temperature 66 °F 54 °F 75 °F (2003)
Min Temperature 21 °F 35 °F 12 °F (1996)
Degree Days  
Heating Degree Days 22    
Moisture  
Dew Point 11 °F    
Average Humidity 31    
Maximum Humidity 58    
Minimum Humidity 11    
Precipitation  
Precipitation 0.00 in - - ()
Sea Level Pressure  
Sea Level Pressure 30.27 in    
Wind  
Wind Speed 3 mph (ENE)    
Max Wind Speed 12 mph    
Max Gust Speed -    
Visibility 10 miles    
Events      
Averages and records for this station are not official NWS values.
T = Trace of Precipitation, MM = Missing Value Source: NWS Daily Summary

Daily Weather History Graph

Daily Weather History Graph

Search for Another Location

Airport:

Trip Planner

Search our weather history database for the weather conditions in past years. The results will help you decide how hot, cold, wet, or windy it might be!

Date:

Astronomy

Oct. 22, 2013 Rise Set
Actual Time 7:10 AM PDT 6:08 PM PDT
Civil Twilight 6:44 AM PDT 6:34 PM PDT
Nautical Twilight 6:13 AM PDT 7:05 PM PDT
Astronomical Twilight 5:43 AM PDT 7:35 PM PDT
Moon 8:55 PM PDT (10/22) 10:40 AM PDT (10/22)
Length of Visible Light 11h 50m
Length of Day
10h 57m
Waning Gibbous, 86% of the Moon is Illuminated
Oct 22
Waning Gibbous
Oct 26
Last Quarter
Nov 3
New
Nov 9
First Quarter
Nov 17
Full

Hourly Weather History & Observations

Time (PDT) Temp. Windchill Dew Point Humidity Pressure Visibility Wind Dir Wind Speed Gust Speed Precip Events Conditions
12:15 AM 32.0 °F 28.7 °F 12.2 °F 44% 30.31 in 10.0 mi North 3.5 mph - N/A   Clear
12:35 AM 35.6 °F - 12.2 °F 38% 30.31 in 10.0 mi Calm Calm - N/A   Clear
12:55 AM 35.6 °F 32.8 °F 12.2 °F 38% 30.31 in 10.0 mi North 3.5 mph - N/A   Clear
1:15 AM 33.8 °F - 10.4 °F 38% 30.31 in 10.0 mi Calm Calm - N/A   Clear
1:35 AM 32.0 °F - 10.4 °F 41% 30.31 in 10.0 mi Calm Calm - N/A   Clear
1:55 AM 30.2 °F 25.4 °F 10.4 °F 44% 30.31 in 10.0 mi North 4.6 mph - N/A   Clear
2:15 AM 30.2 °F - 10.4 °F 44% 30.31 in 10.0 mi Calm Calm - N/A   Clear
2:35 AM 30.2 °F 25.4 °F 12.2 °F 47% 30.31 in 10.0 mi NNW 4.6 mph - N/A   Clear
2:55 AM 30.2 °F 25.4 °F 10.4 °F 44% 30.31 in 10.0 mi North 4.6 mph - N/A   Clear
3:15 AM 30.2 °F - 10.4 °F 44% 30.30 in 10.0 mi Calm Calm - N/A   Clear
3:35 AM 30.2 °F 26.7 °F 12.2 °F 47% 30.30 in 10.0 mi NNW 3.5 mph - N/A   Clear
3:55 AM 30.2 °F - 10.4 °F 44% 30.30 in 10.0 mi Calm Calm - N/A   Clear
4:15 AM 28.4 °F 24.6 °F 10.4 °F 47% 30.30 in 10.0 mi NNW 3.5 mph - N/A   Clear
4:35 AM 26.6 °F - 8.6 °F 47% 30.30 in 10.0 mi North - - N/A   Clear
4:55 AM 23.0 °F - 8.6 °F 54% 30.30 in 10.0 mi Calm Calm - N/A   Clear
5:15 AM 21.2 °F 16.4 °F 8.6 °F 58% 30.30 in 10.0 mi North 3.5 mph - N/A   Clear
5:35 AM 26.6 °F - 10.4 °F 51% 30.31 in 10.0 mi Calm Calm - N/A   Clear
5:55 AM 24.8 °F - 8.6 °F 50% 30.31 in 10.0 mi Calm Calm - N/A   Clear
6:15 AM 24.8 °F - 10.4 °F 54% 30.31 in 10.0 mi North - - N/A   Clear
6:35 AM 23.0 °F 17.0 °F 8.6 °F 54% 30.31 in 10.0 mi WNW 4.6 mph - N/A   Clear
6:55 AM 21.2 °F 16.4 °F 6.8 °F 54% 30.31 in 10.0 mi North 3.5 mph - N/A   Clear
7:15 AM 21.2 °F 16.4 °F 8.6 °F 58% 30.31 in 10.0 mi North 3.5 mph - N/A   Clear
7:35 AM 21.2 °F - 8.6 °F 58% 30.31 in 10.0 mi Calm Calm - N/A   Clear
7:55 AM 26.6 °F - 10.4 °F 51% 30.32 in 10.0 mi Calm Calm - N/A   Clear
8:15 AM 32.0 °F - 12.2 °F 44% 30.32 in 10.0 mi Calm Calm - N/A   Clear
8:35 AM 33.8 °F - 12.2 °F 41% 30.32 in 10.0 mi Calm Calm - N/A   Clear
8:55 AM 39.2 °F - 12.2 °F 33% 30.32 in 10.0 mi Calm Calm - N/A   Clear
9:15 AM 41.0 °F - 14.0 °F 33% 30.32 in 10.0 mi Calm Calm - N/A   Clear
9:35 AM 44.6 °F - 14.0 °F 29% 30.32 in 10.0 mi Calm Calm - N/A   Clear
9:55 AM 46.4 °F - 14.0 °F 27% 30.32 in 10.0 mi Calm Calm - N/A   Clear
10:15 AM 50.0 °F - 14.0 °F 24% 30.31 in 10.0 mi SE 3.5 mph - N/A   Clear
10:35 AM 53.6 °F - 14.0 °F 21% 30.31 in 10.0 mi SE 6.9 mph - N/A   Clear
10:55 AM 55.4 °F - 14.0 °F 20% 30.31 in 10.0 mi North - - N/A   Clear
11:15 AM 59.0 °F - 12.2 °F 16% 30.30 in 10.0 mi North - - N/A   Clear
11:35 AM 59.0 °F - 10.4 °F 15% 30.30 in 10.0 mi Calm Calm - N/A   Clear
11:55 AM 60.8 °F - 12.2 °F 15% 30.29 in 7.0 mi Calm Calm - N/A   Clear
12:15 PM 62.6 °F - 12.2 °F 14% 30.28 in 10.0 mi SE 3.5 mph - N/A   Clear
12:35 PM 64.4 °F - 12.2 °F 13% 30.27 in 10.0 mi Calm Calm - N/A   Clear
12:55 PM 64.4 °F - 12.2 °F 13% 30.26 in 10.0 mi SE 3.5 mph - N/A   Clear
1:15 PM 64.4 °F - 12.2 °F 13% 30.25 in 10.0 mi SE 5.8 mph - N/A   Clear
1:35 PM 66.2 °F - 12.2 °F 12% 30.25 in 10.0 mi ESE 5.8 mph - N/A   Clear
1:55 PM 66.2 °F - 12.2 °F 12% 30.24 in 10.0 mi East 10.4 mph - N/A   Clear
2:15 PM 66.2 °F - 12.2 °F 12% 30.24 in 10.0 mi SE 5.8 mph - N/A   Clear
2:35 PM 66.2 °F - 12.2 °F 12% 30.23 in 10.0 mi ESE 9.2 mph - N/A   Clear
2:55 PM 66.2 °F - 10.4 °F 11% 30.23 in 10.0 mi East 8.1 mph - N/A   Clear
3:15 PM 64.4 °F - 10.4 °F 12% 30.22 in 10.0 mi East 10.4 mph - N/A   Clear
3:35 PM 66.2 °F - 10.4 °F 11% 30.22 in 10.0 mi East 5.8 mph - N/A   Clear
3:55 PM 64.4 °F - 10.4 °F 12% 30.22 in 10.0 mi East 8.1 mph - N/A   Clear
4:15 PM 64.4 °F - 10.4 °F 12% 30.22 in 10.0 mi ESE 8.1 mph - N/A   Clear
4:35 PM 62.6 °F - 10.4 °F 13% 30.21 in 10.0 mi ESE 11.5 mph - N/A   Clear
4:55 PM 62.6 °F - 10.4 °F 13% 30.21 in 10.0 mi ESE 8.1 mph - N/A   Clear
5:15 PM 60.8 °F - 10.4 °F 14% 30.21 in 10.0 mi ESE 6.9 mph - N/A   Clear
5:35 PM 59.0 °F - 10.4 °F 15% 30.21 in 10.0 mi ESE 3.5 mph - N/A   Clear
5:55 PM 53.6 °F - 8.6 °F 16% 30.21 in 10.0 mi SSE 4.6 mph - N/A   Clear
6:15 PM 51.8 °F - 8.6 °F 18% 30.21 in 10.0 mi Calm Calm - N/A   Clear
6:35 PM 50.0 °F - 8.6 °F 19% 30.21 in 10.0 mi Calm Calm - N/A   Clear
6:55 PM 44.6 °F 40.7 °F 8.6 °F 23% 30.22 in 10.0 mi West 6.9 mph - N/A   Clear
7:35 PM 44.6 °F - 10.4 °F 25% 30.23 in 10.0 mi Calm Calm - N/A   Clear
8:15 PM 41.0 °F 37.1 °F 10.4 °F 29% 30.23 in 10.0 mi NNW 5.8 mph - N/A   Clear
8:35 PM 37.4 °F 33.8 °F 8.6 °F 30% 30.24 in 10.0 mi NNW 4.6 mph - N/A   Clear
8:55 PM 39.2 °F - 10.4 °F 31% 30.24 in 10.0 mi Calm Calm - N/A   Clear
9:15 PM 39.2 °F 35.9 °F 12.2 °F 33% 30.24 in 10.0 mi NNW 4.6 mph - N/A   Clear
9:35 PM 39.2 °F - 14.0 °F 36% 30.25 in 10.0 mi Calm Calm - N/A   Clear
9:55 PM 37.4 °F - 14.0 °F 38% 30.25 in 10.0 mi Calm Calm - N/A   Clear
10:15 PM 37.4 °F - 12.2 °F 36% 30.25 in 10.0 mi Calm Calm - N/A   Clear
10:35 PM 37.4 °F - 14.0 °F 38% 30.25 in 10.0 mi Calm Calm - N/A   Clear
10:55 PM 37.4 °F - 12.2 °F 36% 30.25 in 10.0 mi Calm Calm - N/A   Clear
11:15 PM 37.4 °F 31.4 °F 14.0 °F 38% 30.25 in 10.0 mi WNW 8.1 mph - N/A   Clear
11:35 PM 37.4 °F 32.1 °F 14.0 °F 38% 30.25 in 10.0 mi West 6.9 mph - N/A   Clear
11:55 PM 37.4 °F 32.1 °F 14.0 °F 38% 30.25 in 10.0 mi West 6.9 mph - N/A   Clear